Time,TemperatureF,DewpointF,PressureIn,WindDirection,WindDirectionDegrees,WindSpeedMPH,WindSpeedGustMPH,Humidity,HourlyPrecipIn,Conditions,Clouds,dailyrainin,SoftwareType,DateUTC
2013-10-11 00:08:00,53.4,51.7,29.92,SE,135,0.0,-999.0,94,-99.99,,,0.00,Acu-Link.com,2013-10-11 04:08:00,
2013-10-11 00:23:00,52.9,50.3,29.92,South,180,0.0,-999.0,91,-99.99,,,0.00,Acu-Link.com,2013-10-11 04:23:00,
2013-10-11 00:38:00,53.1,51.7,29.91,ESE,112,0.0,-999.0,95,-99.99,,,0.00,Acu-Link.com,2013-10-11 04:38:00,
2013-10-11 00:53:00,53.1,51.4,29.91,East,90,0.0,-999.0,94,-99.99,,,0.00,Acu-Link.com,2013-10-11 04:53:00,
2013-10-11 01:08:00,52.3,50.3,29.91,ESE,112,0.0,-999.0,93,-99.99,,,0.00,Acu-Link.com,2013-10-11 05:08:00,
2013-10-11 01:24:00,52.2,50.2,29.91,East,90,0.0,-999.0,93,-99.99,,,0.00,Acu-Link.com,2013-10-11 05:24:00,
2013-10-11 01:39:00,51.6,49.6,29.91,ESE,112,0.0,-999.0,93,-99.99,,,0.00,Acu-Link.com,2013-10-11 05:39:00,
2013-10-11 01:54:00,51.8,50.1,29.91,ESE,112,0.0,-999.0,94,-99.99,,,0.00,Acu-Link.com,2013-10-11 05:54:00,
2013-10-11 02:09:00,51.3,49.3,29.91,ESE,112,0.0,-999.0,93,-99.99,,,0.00,Acu-Link.com,2013-10-11 06:09:00,
2013-10-11 02:24:00,51.1,49.1,29.92,ESE,112,0.0,-999.0,93,-99.99,,,0.00,Acu-Link.com,2013-10-11 06:24:00,
2013-10-11 02:40:00,50.9,49.2,29.92,ESE,112,0.0,-999.0,94,-99.99,,,0.00,Acu-Link.com,2013-10-11 06:40:00,
2013-10-11 02:56:00,50.7,49.3,29.92,ENE,67,0.0,-999.0,95,-99.99,,,0.00,Acu-Link.com,2013-10-11 06:56:00,
2013-10-11 03:11:00,50.5,48.8,29.91,ENE,67,0.0,-999.0,94,-99.99,,,0.00,Acu-Link.com,2013-10-11 07:11:00,
2013-10-11 03:26:00,50.4,48.7,29.91,ESE,112,0.0,-999.0,94,-99.99,,,0.00,Acu-Link.com,2013-10-11 07:26:00,
2013-10-11 03:42:00,50.4,48.7,29.91,ESE,112,0.0,-999.0,94,-99.99,,,0.00,Acu-Link.com,2013-10-11 07:42:00,
2013-10-11 03:57:00,49.8,48.1,29.91,ESE,112,0.0,-999.0,94,-99.99,,,0.00,Acu-Link.com,2013-10-11 07:57:00,
2013-10-11 04:14:00,49.8,48.1,29.91,ESE,112,0.0,-999.0,94,-99.99,,,0.00,Acu-Link.com,2013-10-11 08:14:00,
2013-10-11 04:29:00,49.6,48.2,29.91,South,180,0.0,-999.0,95,-99.99,,,0.00,Acu-Link.com,2013-10-11 08:29:00,
2013-10-11 04:44:00,49.5,48.1,29.91,SSE,157,0.0,-999.0,95,-99.99,,,0.00,Acu-Link.com,2013-10-11 08:44:00,
2013-10-11 04:59:00,49.5,48.1,29.91,ESE,112,0.0,-999.0,95,-99.99,,,0.00,Acu-Link.com,2013-10-11 08:59:00,
2013-10-11 05:15:00,49.3,48.2,29.91,ESE,112,0.0,-999.0,96,-99.99,,,0.00,Acu-Link.com,2013-10-11 09:15:00,
2013-10-11 05:30:00,48.9,47.5,29.91,SE,135,0.0,-999.0,95,-99.99,,,0.00,Acu-Link.com,2013-10-11 09:30:00,
2013-10-11 05:45:00,48.7,47.6,29.91,ESE,112,0.0,-999.0,96,-99.99,,,0.00,Acu-Link.com,2013-10-11 09:45:00,
2013-10-11 06:00:00,48.4,47.9,29.93,ESE,112,0.0,-999.0,98,-99.99,,,0.00,Acu-Link.com,2013-10-11 10:00:00,
2013-10-11 06:15:00,47.8,47.0,29.93,ESE,112,0.0,-999.0,97,-99.99,,,0.00,Acu-Link.com,2013-10-11 10:15:00,
2013-10-11 06:31:00,48.2,47.9,29.93,ESE,112,0.0,-999.0,99,-99.99,,,0.00,Acu-Link.com,2013-10-11 10:31:00,
2013-10-11 06:46:00,48.2,47.9,29.94,ESE,112,0.0,-999.0,99,-99.99,,,0.00,Acu-Link.com,2013-10-11 10:46:00,
2013-10-11 07:01:00,48.0,47.7,29.94,ESE,112,0.0,-999.0,99,-99.99,,,0.00,Acu-Link.com,2013-10-11 11:01:00,
2013-10-11 07:16:00,48.0,47.7,29.95,ESE,112,0.0,-999.0,99,-99.99,,,0.00,Acu-Link.com,2013-10-11 11:16:00,
2013-10-11 07:31:00,48.0,47.7,29.94,ESE,112,0.0,-999.0,99,-99.99,,,0.00,Acu-Link.com,2013-10-11 11:31:00,
2013-10-11 07:47:00,48.4,48.1,29.95,ESE,112,0.0,-999.0,99,-99.99,,,0.00,Acu-Link.com,2013-10-11 11:47:00,
2013-10-11 08:02:00,48.4,48.1,29.95,ESE,112,0.0,-999.0,99,-99.99,,,0.00,Acu-Link.com,2013-10-11 12:02:00,
2013-10-11 08:17:00,49.1,48.8,29.96,ESE,112,0.0,-999.0,99,-99.99,,,0.00,Acu-Link.com,2013-10-11 12:17:00,
2013-10-11 08:32:00,53.6,52.2,29.96,SE,135,0.0,-999.0,95,-99.99,,,0.00,Acu-Link.com,2013-10-11 12:32:00,
2013-10-11 08:47:00,57.7,53.5,29.96,SE,135,0.0,-999.0,86,-99.99,,,0.00,Acu-Link.com,2013-10-11 12:47:00,
2013-10-11 09:03:00,61.7,55.8,29.96,ESE,112,0.0,-999.0,81,-99.99,,,0.00,Acu-Link.com,2013-10-11 13:03:00,
2013-10-11 09:18:00,65.8,55.7,29.97,ESE,112,0.0,-999.0,70,-99.99,,,0.00,Acu-Link.com,2013-10-11 13:18:00,
2013-10-11 09:33:00,69.3,53.9,29.97,ESE,112,0.0,-999.0,58,-99.99,,,0.00,Acu-Link.com,2013-10-11 13:33:00,
2013-10-11 09:48:00,70.5,51.5,29.97,ESE,112,1.1,-999.0,51,-99.99,,,0.00,Acu-Link.com,2013-10-11 13:48:00,
2013-10-11 10:03:00,73.9,51.8,29.97,SE,135,0.0,-999.0,46,-99.99,,,0.00,Acu-Link.com,2013-10-11 14:03:00,
2013-10-11 10:19:00,73.8,51.7,29.96,SSW,202,1.7,-999.0,46,-99.99,,,0.00,Acu-Link.com,2013-10-11 14:19:00,
2013-10-11 10:34:00,78.6,52.9,29.97,South,180,1.7,-999.0,41,-99.99,,,0.00,Acu-Link.com,2013-10-11 14:34:00,
2013-10-11 10:49:00,77.5,52.6,29.97,ESE,112,1.7,-999.0,42,-99.99,,,0.00,Acu-Link.com,2013-10-11 14:49:00,
2013-10-11 11:04:00,76.3,52.8,29.97,ESE,112,1.7,-999.0,44,-99.99,,,0.00,Acu-Link.com,2013-10-11 15:04:00,
2013-10-11 11:20:00,76.8,53.8,29.96,SSW,202,1.7,-999.0,45,-99.99,,,0.00,Acu-Link.com,2013-10-11 15:20:00,
2013-10-11 11:35:00,78.4,52.1,29.95,ENE,67,2.2,-999.0,40,-99.99,,,0.00,Acu-Link.com,2013-10-11 15:35:00,
2013-10-11 11:50:00,77.5,52.6,29.96,West,270,2.7,-999.0,42,-99.99,,,0.00,Acu-Link.com,2013-10-11 15:50:00,
2013-10-11 12:05:00,77.4,53.8,29.95,SSE,157,2.7,-999.0,44,-99.99,,,0.00,Acu-Link.com,2013-10-11 16:05:00,
2013-10-11 12:20:00,78.6,52.9,29.95,ENE,67,2.2,-999.0,41,-99.99,,,0.00,Acu-Link.com,2013-10-11 16:20:00,
2013-10-11 12:36:00,75.9,51.8,29.95,ESE,112,2.7,-999.0,43,-99.99,,,0.00,Acu-Link.com,2013-10-11 16:36:00,
2013-10-11 12:51:00,76.5,52.9,29.94,ESE,112,5.8,-999.0,44,-99.99,,,0.00,Acu-Link.com,2013-10-11 16:51:00,
2013-10-11 13:06:00,79.0,54.6,29.93,West,270,2.7,-999.0,43,-99.99,,,0.00,Acu-Link.com,2013-10-11 17:06:00,
2013-10-11 13:21:00,76.8,52.6,29.92,ESE,112,3.2,-999.0,43,-99.99,,,0.00,Acu-Link.com,2013-10-11 17:21:00,
2013-10-11 13:36:00,80.8,53.5,29.92,ESE,112,1.7,-999.0,39,-99.99,,,0.00,Acu-Link.com,2013-10-11 17:36:00,
2013-10-11 13:52:00,78.4,54.7,29.91,SE,135,2.2,-999.0,44,-99.99,,,0.00,Acu-Link.com,2013-10-11 17:52:00,
2013-10-11 14:07:00,82.0,56.0,29.90,NNW,337,2.2,-999.0,41,-99.99,,,0.00,Acu-Link.com,2013-10-11 18:07:00,
2013-10-11 14:22:00,79.7,55.8,29.89,ESE,112,0.0,-999.0,44,-99.99,,,0.00,Acu-Link.com,2013-10-11 18:22:00,
2013-10-11 14:37:00,81.1,57.1,29.88,ESE,112,1.7,-999.0,44,-99.99,,,0.00,Acu-Link.com,2013-10-11 18:37:00,
2013-10-11 14:52:00,83.8,58.2,29.88,SSW,202,1.7,-999.0,42,-99.99,,,0.00,Acu-Link.com,2013-10-11 18:52:00,
2013-10-11 15:08:00,81.3,58.5,29.87,WNW,292,0.0,-999.0,46,-99.99,,,0.00,Acu-Link.com,2013-10-11 19:08:00,
2013-10-11 15:23:00,87.1,57.6,29.86,NNW,337,1.1,-999.0,37,-99.99,,,0.00,Acu-Link.com,2013-10-11 19:23:00,
2013-10-11 15:38:00,84.9,58.5,29.86,West,270,1.7,-999.0,41,-99.99,,,0.00,Acu-Link.com,2013-10-11 19:38:00,
2013-10-11 15:53:00,84.0,58.4,29.85,NW,315,0.0,-999.0,42,-99.99,,,0.00,Acu-Link.com,2013-10-11 19:53:00,
2013-10-11 16:09:00,85.5,59.8,29.87,South,180,0.0,-999.0,42,-99.99,,,0.00,Acu-Link.com,2013-10-11 20:09:00,
2013-10-11 16:24:00,82.8,57.3,29.87,West,270,1.1,-999.0,42,-99.99,,,0.00,Acu-Link.com,2013-10-11 20:24:00,
2013-10-11 16:39:00,81.5,55.5,29.87,ESE,112,0.0,-999.0,41,-99.99,,,0.00,Acu-Link.com,2013-10-11 20:39:00,
2013-10-11 16:54:00,83.5,56.6,29.87,NE,45,2.7,-999.0,40,-99.99,,,0.00,Acu-Link.com,2013-10-11 20:54:00,
2013-10-11 17:09:00,84.2,58.6,29.87,SE,135,2.2,-999.0,42,-99.99,,,0.00,Acu-Link.com,2013-10-11 21:09:00,
2013-10-11 17:25:00,82.9,57.4,29.88,WNW,292,1.7,-999.0,42,-99.99,,,0.00,Acu-Link.com,2013-10-11 21:25:00,
2013-10-11 17:40:00,82.8,58.0,29.87,SSW,202,2.7,-999.0,43,-99.99,,,0.00,Acu-Link.com,2013-10-11 21:40:00,
2013-10-11 17:55:00,82.8,57.3,29.88,SSW,202,1.1,-999.0,42,-99.99,,,0.00,Acu-Link.com,2013-10-11 21:55:00,
2013-10-11 18:10:00,80.2,57.5,29.88,SSE,157,0.0,-999.0,46,-99.99,,,0.00,Acu-Link.com,2013-10-11 22:10:00,
2013-10-11 18:25:00,80.6,57.9,29.87,SSE,157,0.0,-999.0,46,-99.99,,,0.00,Acu-Link.com,2013-10-11 22:25:00,
2013-10-11 18:41:00,77.2,57.7,29.87,NNE,22,0.0,-999.0,51,-99.99,,,0.00,Acu-Link.com,2013-10-11 22:41:00,
2013-10-11 18:56:00,74.3,57.1,29.87,NE,45,0.0,-999.0,55,-99.99,,,0.00,Acu-Link.com,2013-10-11 22:56:00,
2013-10-11 19:11:00,71.6,57.0,29.87,NW,315,0.0,-999.0,60,-99.99,,,0.00,Acu-Link.com,2013-10-11 23:11:00,
2013-10-11 19:26:00,69.4,56.7,29.88,NNW,337,0.0,-999.0,64,-99.99,,,0.00,Acu-Link.com,2013-10-11 23:26:00,
2013-10-11 19:41:00,67.3,56.8,29.88,East,90,0.0,-999.0,69,-99.99,,,0.00,Acu-Link.com,2013-10-11 23:41:00,
2013-10-11 19:57:00,65.8,56.5,29.89,ESE,112,0.0,-999.0,72,-99.99,,,0.00,Acu-Link.com,2013-10-11 23:57:00,
2013-10-11 20:12:00,64.6,56.1,29.88,ESE,112,0.0,-999.0,74,-99.99,,,0.00,Acu-Link.com,2013-10-12 00:12:00,
2013-10-11 20:27:00,63.5,56.2,29.89,ESE,112,0.0,-999.0,77,-99.99,,,0.00,Acu-Link.com,2013-10-12 00:27:00,
2013-10-11 20:42:00,62.6,55.6,29.89,ESE,112,0.0,-999.0,78,-99.99,,,0.00,Acu-Link.com,2013-10-12 00:42:00,
2013-10-11 20:57:00,61.7,56.1,29.89,ESE,112,0.0,-999.0,82,-99.99,,,0.00,Acu-Link.com,2013-10-12 00:57:00,
2013-10-11 21:13:00,61.2,56.3,29.89,ESE,112,0.0,-999.0,84,-99.99,,,0.00,Acu-Link.com,2013-10-12 01:13:00,
2013-10-11 21:28:00,60.3,56.1,29.89,SW,225,0.0,-999.0,86,-99.99,,,0.00,Acu-Link.com,2013-10-12 01:28:00,
2013-10-11 21:43:00,60.1,55.6,29.89,ESE,112,0.0,-999.0,85,-99.99,,,0.00,Acu-Link.com,2013-10-12 01:43:00,
2013-10-11 21:58:00,59.5,55.9,29.89,ESE,112,0.0,-999.0,88,-99.99,,,0.00,Acu-Link.com,2013-10-12 01:58:00,
2013-10-11 22:14:00,59.2,56.3,29.89,ESE,112,0.0,-999.0,90,-99.99,,,0.00,Acu-Link.com,2013-10-12 02:14:00,
2013-10-11 22:29:00,58.8,56.2,29.88,ESE,112,0.0,-999.0,91,-99.99,,,0.00,Acu-Link.com,2013-10-12 02:29:00,
2013-10-11 22:44:00,58.3,55.4,29.89,ESE,112,0.0,-999.0,90,-99.99,,,0.00,Acu-Link.com,2013-10-12 02:44:00,
2013-10-11 22:59:00,57.9,55.0,29.88,ESE,112,0.0,-999.0,90,-99.99,,,0.00,Acu-Link.com,2013-10-12 02:59:00,
2013-10-11 23:14:00,57.7,55.4,29.88,ESE,112,0.0,-999.0,92,-99.99,,,0.00,Acu-Link.com,2013-10-12 03:14:00,
2013-10-11 23:30:00,57.2,54.9,29.88,ESE,112,0.0,-999.0,92,-99.99,,,0.00,Acu-Link.com,2013-10-12 03:30:00,
2013-10-11 23:45:00,57.0,54.7,29.88,ESE,112,0.0,-999.0,92,-99.99,,,0.00,Acu-Link.com,2013-10-12 03:45:00,